Regional Weather Roundup
Issued by NWS Little Rock, AR

Home | Current Version | Previous Version | Graphics & Text | Print | Product List | Glossary On
Versions: 1 2 3 4 5 6 7 8 9 10 11 12 13 14 15 16 17 18 19 20 21 22 23 24 25 26 27
000
ASUS44 KLZK 211905
RWRLZK

WEATHER ROUNDUP FOR ARKANSAS
NATIONAL WEATHER SERVICE LITTLE ROCK AR
200 PM CDT TUE OCT 21 2014

NOTE: "FAIR" INDICATES FEW OR NO CLOUDS BELOW 12,000 FEET WITH NO
SIGNIFICANT WEATHER AND/OR OBSTRUCTIONS TO VISIBILITY.

ARZ001-003-010-029-212000-
NORTHWEST ARKANSAS

CITY           SKY/WX    TMP DP  RH WIND       PRES   REMARKS
FAYETTEVILLE   SUNNY     74  53  48 CALM      30.10F
FORT SMITH     MOSUNNY   77  59  53 CALM      30.06F
HARRISON       SUNNY     74  50  42 CALM      30.11F
BENTONVILLE    SUNNY     73  48  40 CALM      30.11F
ROGERS         SUNNY     72  53  51 W3        30.11F
SILOAM SPGS    SUNNY     75  52  43 CALM      30.11F
HIGHFILL       SUNNY     74  49  41 CALM      30.10F
SPRINGDALE     SUNNY     73  54  49 CALM      30.12
$$

ARZ004-005-016-212000-
NORTH CENTRAL ARKANSAS

CITY           SKY/WX    TMP DP  RH WIND       PRES   REMARKS
BATESVILLE     SUNNY     75  48  38 W7        30.08F
FLIPPIN        SUNNY     72  46  40 E5        30.10F
MTN HOME       SUNNY     72  46  39 VRB5      30.09F
$$

ARZ040-041-212000-
WEST CENTRAL ARKANSAS

CITY           SKY/WX    TMP DP  RH WIND       PRES   REMARKS
MENA           MOSUNNY   79  61  53 CALM      30.09F
MOUNT IDA      SUNNY     77  58  51 NW6       30.07F
$$

ARZ009-017-025-026-028-212000-
NORTHEAST ARKANSAS

CITY           SKY/WX    TMP DP  RH WIND       PRES   REMARKS
CORNING        FAIR      73  46  38 NW6       30.07F
JONESBORO      SUNNY     74  44  34 VRB6      30.07F
NEWPORT        SUNNY     75  46  35 VRB5      30.08F
WALNUT RIDGE   SUNNY     73  46  38 N6        30.08F
BLYTHEVILLE    SUNNY     78  47  33 N10       30.07F
NW BLYTHEVILLE SUNNY     73  48  40 NW5       30.07F
$$

ARZ022-023-033-042-044-212000-
CENTRAL ARKANSAS

CITY           SKY/WX    TMP DP  RH WIND       PRES   REMARKS
LITTLE ROCK    MOSUNNY   80  51  36 VRB3      30.07F
N LITTLE ROCK  MOSUNNY   77  57  49 N5        30.07F
JACKSONVILLE   SUNNY     77  52  41 S2        30.07F
SEARCY         SUNNY     76  51  41 CALM      30.08F
HOT SPRINGS    MOSUNNY   77  55  46 S6        30.08F
RUSSELLVILLE   SUNNY     77  55  46 VRB5      30.07F
$$

ARZ036-212000-
EAST ARKANSAS

CITY           SKY/WX    TMP DP  RH WIND       PRES   REMARKS
WEST MEMPHIS   SUNNY     75  47  36 N7        30.06F
$$

ARZ050-053-066-070-073-212000-
SOUTHWEST ARKANSAS

CITY           SKY/WX    TMP DP  RH WIND       PRES   REMARKS
ARKADELPHIA    FAIR      78  59  52 CALM      30.07F
CAMDEN         MOSUNNY   81  57  44 E5        30.06F
TEXARKANA      SUNNY     78  61  55 S3        30.06F
EL DORADO      PTSUNNY   79  62  56 N8        30.06F
DE QUEEN       SUNNY     78  64  61 VRB3      30.05F
$$

ARZ056-057-069-212000-
SOUTHEAST ARKANSAS

CITY           SKY/WX    TMP DP  RH WIND       PRES   REMARKS
PINE BLUFF     MOSUNNY   76  56  49 CALM      30.06F
STUTTGART      SUNNY     77  54  44 N7        30.07F
MONTICELLO     MOSUNNY   76  59  55 VRB3      30.05F

$$





USA.gov is the U.S. government's official web portal to all federal, state and local government web resources and services.